Voltar ao catálogo

DELTA 1 DEB

AtivoSSO
NORAD 10647·DEBRIS·🇺🇸 United States

Lançado Jul 29, 1976 de Vandenberg Space Force Base

Loading…

Próximas Passagens (próximas 24 horas)

TLE

AtualizadoSource: Space-Track

Época: Sep 13, 2026, 04:50 UTC

1 10647U 76077H   26256.20148433  .00000056  00000-0  10490-2 0  9998
2 10647 102.7604 353.3030 0164891 337.3944  49.2982 12.11312390216881

Acompanhe DELTA 1 DEB em tempo real com AllMySat

Download on the App Store